Change the Weather History Date:

Thursday, June 13, 2013

  Actual Average (KBLF) Record (KBLF)
Temperature  
Mean Temperature 75 °F 69 °F  
Max Temperature 86 °F 78 °F 84 °F (1967)
Min Temperature 64 °F 61 °F 44 °F (1985)
Degree Days  
Heating Degree Days 0 1  
Month to date heating degree days 18  
Since 1 June heating degree days 18  
Since 1 July heating degree days 4584  
Cooling Degree Days 10 5  
Month to date cooling degree days 55  
Year to date cooling degree days 146  
Since 1 June cooling degree days 55  
Growing Degree Days 25 (Base 50)    
Moisture  
Dew Point 67 °F    
Average Humidity 75    
Maximum Humidity 89    
Minimum Humidity 51    
Precipitation  
Precipitation 0.00 in 0.14 in 0.78 in (2005)
Month to date precipitation 1.85  
Year to date precipitation 18.67  
Snow  
Snow 0.00 in - - ()
Month to date snowfall  
Since 1 June snowfall  
Since 1 July snowfall  
Snow Depth -    
Sea Level Pressure  
Sea Level Pressure 29.90 in    
Wind  
Wind Speed 10 mph (West)    
Max Wind Speed 22 mph    
Max Gust Speed 34 mph    
Visibility 10 miles    
Events Rain    
T = Trace of Precipitation, MM = Missing Value Source: NWS Daily Summary

Daily Weather History Graph

Daily Weather History Graph

Search for Another Location

Airport or City:

Trip Planner

Search our weather history database for the weather conditions in past years. The results will help you decide how hot, cold, wet, or windy it might be!

Date:

Astronomy

Jun. 13, 2013 Rise Set
Actual Time 6:03 AM EDT 8:43 PM EDT
Civil Twilight 5:33 AM EDT 9:13 PM EDT
Nautical Twilight 4:55 AM EDT 9:52 PM EDT
Astronomical Twilight 4:12 AM EDT 10:34 PM EDT
Moon 10:33 AM EDT (6/13) 11:55 PM EDT (6/13)
Length of Visible Light 15h 40m
Length of Day
14h 39m
Waxing Crescent, 21% of the Moon is Illuminated
Jun 13
Waxing Crescent
Jun 16
First Quarter
Jun 23
Full
Jun 30
Last Quarter
Jul 8
New

Hourly Weather History & Observations

Time (EDT) Temp. Heat Index Dew Point Humidity Pressure Visibility Wind Dir Wind Speed Gust Speed Precip Events Conditions
12:15 AM 77.0 °F - 71.6 °F 83% 30.03 in 10.0 mi SSW 4.6 mph - N/A   Clear
12:35 AM 75.2 °F - 71.6 °F 89% 30.03 in 10.0 mi SSW 3.5 mph - N/A   Clear
12:55 AM 77.0 °F - 71.6 °F 83% 30.03 in 10.0 mi WSW 3.5 mph - N/A   Clear
1:15 AM 77.0 °F - 71.6 °F 83% 30.03 in 10.0 mi SW 3.5 mph - N/A   Clear
1:35 AM 75.2 °F - 71.6 °F 89% 30.02 in 10.0 mi SSW 4.6 mph - N/A   Clear
1:55 AM 77.0 °F - 71.6 °F 83% 30.02 in 10.0 mi WSW 4.6 mph - N/A   Clear
2:15 AM 75.2 °F - 71.6 °F 89% 30.02 in 10.0 mi SW 5.8 mph - N/A   Clear
2:35 AM 77.0 °F - 71.6 °F 83% 30.01 in 10.0 mi WSW 6.9 mph - N/A   Clear
2:55 AM 77.0 °F - 71.6 °F 83% 30.01 in 10.0 mi West 6.9 mph - N/A   Clear
3:15 AM 75.2 °F - 71.6 °F 89% 30.00 in 10.0 mi West 6.9 mph - N/A   Clear
3:35 AM 77.0 °F - 69.8 °F 78% 30.00 in 10.0 mi West 5.8 mph - N/A   Clear
3:55 AM 77.0 °F - 69.8 °F 78% 29.99 in 10.0 mi West 6.9 mph - N/A   Clear
4:15 AM 77.0 °F - 69.8 °F 78% 29.98 in 10.0 mi West 6.9 mph - N/A   Clear
4:35 AM 75.2 °F - 69.8 °F 83% 29.97 in 10.0 mi West 6.9 mph - N/A   Clear
4:55 AM 77.0 °F - 69.8 °F 78% 29.96 in 10.0 mi West 10.4 mph 18.4 mph N/A   Clear
5:15 AM 77.0 °F - 68.0 °F 74% 29.95 in 10.0 mi WSW 6.9 mph - N/A   Clear
5:35 AM 75.2 °F - 66.2 °F 73% 29.95 in 10.0 mi SW 6.9 mph - N/A   Clear
5:55 AM 75.2 °F - 66.2 °F 73% 29.95 in 10.0 mi WSW 8.1 mph - N/A   Clear
6:15 AM 75.2 °F - 66.2 °F 73% 29.94 in 10.0 mi West 8.1 mph - N/A   Clear
6:35 AM 75.2 °F - 66.2 °F 73% 29.94 in 10.0 mi West 3.5 mph - N/A   Clear
6:55 AM 75.2 °F - 66.2 °F 73% 29.93 in 10.0 mi WSW 5.8 mph - N/A   Clear
7:15 AM 75.2 °F - 66.2 °F 73% 29.93 in 10.0 mi West 9.2 mph - N/A   Clear
7:35 AM 75.2 °F - 68.0 °F 78% 29.93 in 10.0 mi WSW 9.2 mph - N/A   Clear
7:55 AM 75.2 °F - 68.0 °F 78% 29.93 in 10.0 mi WSW 6.9 mph - N/A   Clear
8:15 AM 77.0 °F - 68.0 °F 74% 29.92 in 10.0 mi West 5.8 mph - N/A   Clear
8:35 AM 78.8 °F - 69.8 °F 74% 29.92 in 10.0 mi West 16.1 mph 20.7 mph N/A   Clear
8:55 AM 78.8 °F - 68.0 °F 69% 29.92 in 10.0 mi West 13.8 mph 26.5 mph N/A   Clear
9:15 AM 78.8 °F - 69.8 °F 74% 29.91 in 10.0 mi West 12.7 mph 23.0 mph N/A   Clear
9:35 AM 80.6 °F 83.2 °F 68.0 °F 65% 29.90 in 10.0 mi West 15.0 mph 21.9 mph N/A   Clear
9:55 AM 80.6 °F 82.7 °F 66.2 °F 61% 29.90 in 10.0 mi West 16.1 mph 28.8 mph N/A   Clear
10:15 AM 78.8 °F - 66.2 °F 65% 29.90 in 10.0 mi WSW 19.6 mph 28.8 mph N/A   Clear
10:35 AM 82.4 °F 84.6 °F 66.2 °F 58% 29.89 in 10.0 mi West 15.0 mph 23.0 mph N/A   Clear
10:55 AM 82.4 °F 84.6 °F 66.2 °F 58% 29.87 in 10.0 mi WSW 19.6 mph 26.5 mph N/A   Clear
11:15 AM 84.2 °F 86.6 °F 66.2 °F 55% 29.87 in 10.0 mi WSW 12.7 mph 25.3 mph N/A   Clear
11:35 AM 84.2 °F 86.6 °F 66.2 °F 55% 29.86 in 10.0 mi WSW 18.4 mph 21.9 mph N/A   Clear
11:55 AM 84.2 °F 85.6 °F 64.4 °F 51% 29.86 in 10.0 mi WSW 21.9 mph 33.4 mph N/A   Clear
12:15 PM 86.0 °F 88.2 °F 66.2 °F 51% 29.85 in 10.0 mi WSW 17.3 mph 24.2 mph N/A   Clear
12:35 PM 86.0 °F 88.2 °F 66.2 °F 51% 29.85 in 10.0 mi WSW 16.1 mph 23.0 mph N/A   Scattered Clouds
12:55 PM 84.2 °F 88.4 °F 69.8 °F 62% 29.83 in 10.0 mi SW 13.8 mph 19.6 mph N/A   Clear
1:15 PM 84.2 °F 87.3 °F 68.0 °F 58% 29.82 in 10.0 mi SW 19.6 mph 24.2 mph N/A   Unknown
1:35 PM 84.2 °F 87.3 °F 68.0 °F 58% 29.82 in 10.0 mi SW 17.3 mph 24.2 mph N/A   Clear
1:55 PM 84.2 °F 88.4 °F 69.8 °F 62% 29.83 in 10.0 mi SW 16.1 mph 24.2 mph N/A   Clear
2:15 PM 84.2 °F 88.4 °F 69.8 °F 62% 29.82 in 10.0 mi SW 13.8 mph 20.7 mph N/A   Clear
2:55 PM 71.6 °F - 64.4 °F 78% 29.83 in 10.0 mi West 16.1 mph 34.5 mph N/A Rain Light Rain
3:15 PM 71.6 °F - 66.2 °F 83% 29.83 in 10.0 mi West 16.1 mph 32.2 mph N/A   Scattered Clouds
3:35 PM 71.6 °F - 64.4 °F 78% 29.81 in 10.0 mi WSW 11.5 mph 17.3 mph N/A   Clear
3:55 PM 73.4 °F - 64.4 °F 73% 29.82 in 10.0 mi WNW 17.3 mph 28.8 mph N/A   Scattered Clouds
4:15 PM 73.4 °F - 66.2 °F 78% 29.81 in 10.0 mi WNW 15.0 mph 26.5 mph N/A   Scattered Clouds
4:35 PM 73.4 °F - 66.2 °F 78% 29.81 in 10.0 mi West 17.3 mph 25.3 mph N/A   Clear
4:55 PM 71.6 °F - 64.4 °F 78% 29.81 in 10.0 mi WNW 17.3 mph 29.9 mph N/A   Clear
5:15 PM 71.6 °F - 64.4 °F 78% 29.83 in 10.0 mi West 12.7 mph 25.3 mph N/A   Scattered Clouds
5:35 PM 71.6 °F - 64.4 °F 78% 29.83 in 10.0 mi West 15.0 mph 19.6 mph N/A   Scattered Clouds
5:55 PM 71.6 °F - 64.4 °F 78% 29.82 in 10.0 mi West 10.4 mph 23.0 mph N/A   Clear
6:15 PM 71.6 °F - 64.4 °F 78% 29.82 in 10.0 mi WNW 13.8 mph 18.4 mph N/A   Scattered Clouds
6:35 PM 71.6 °F - 64.4 °F 78% 29.82 in 10.0 mi WNW 17.3 mph 23.0 mph N/A   Overcast
6:55 PM 71.6 °F - 64.4 °F 78% 29.82 in 10.0 mi WNW 12.7 mph 19.6 mph N/A   Scattered Clouds
7:15 PM 71.6 °F - 64.4 °F 78% 29.83 in 10.0 mi WNW 11.5 mph 18.4 mph N/A   Scattered Clouds
7:35 PM 71.6 °F - 64.4 °F 78% 29.84 in 10.0 mi WNW 13.8 mph 17.3 mph N/A   Mostly Cloudy
7:55 PM 71.6 °F - 64.4 °F 78% 29.84 in 10.0 mi WNW 12.7 mph 17.3 mph N/A   Mostly Cloudy
8:15 PM 71.6 °F - 64.4 °F 78% 29.84 in 10.0 mi WNW 13.8 mph 21.9 mph N/A   Mostly Cloudy
8:35 PM 69.8 °F - 64.4 °F 83% 29.84 in 10.0 mi WNW 13.8 mph - N/A   Mostly Cloudy
8:55 PM 69.8 °F - 64.4 °F 83% 29.84 in 10.0 mi WNW 11.5 mph - N/A   Overcast
9:15 PM 68.0 °F - 64.4 °F 88% 29.85 in 10.0 mi NW 11.5 mph - N/A Rain Rain
9:35 PM 68.0 °F - 64.4 °F 88% 29.86 in 10.0 mi NNW 16.1 mph 21.9 mph N/A   Overcast
9:55 PM 68.0 °F - 64.4 °F 88% 29.87 in 10.0 mi NNW 17.3 mph 23.0 mph N/A   Overcast
10:15 PM 68.0 °F - 62.6 °F 83% 29.88 in 10.0 mi NW 16.1 mph 23.0 mph N/A   Overcast
10:35 PM 68.0 °F - 62.6 °F 83% 29.89 in 10.0 mi North 17.3 mph 23.0 mph N/A   Overcast
10:55 PM 66.2 °F - 60.8 °F 83% 29.90 in 10.0 mi NNW 16.1 mph 20.7 mph N/A   Mostly Cloudy
11:15 PM 66.2 °F - 59.0 °F 78% 29.90 in 10.0 mi NNW 19.6 mph 24.2 mph N/A   Scattered Clouds
11:35 PM 64.4 °F - 57.2 °F 77% 29.91 in 10.0 mi NNW 16.1 mph - N/A   Clear
11:55 PM 64.4 °F - 55.4 °F 73% 29.91 in 10.0 mi NNW 17.3 mph 24.2 mph N/A   Clear